Location: Newark
(29.9790°N, 31.1340°E)
Time: 15:49:38
(UTC+00:00)

Vanguard 3 - Pass Details

Date: 26 January 2020
Orbit: 508 x 3263 km, 33.3° (Epoch: 17 February)

Event Time Altitude Azimuth Distance (km) Brightness Sun altitude
Rises 16:53:20 0° 267° (W) 7,121 13.6 -18.8°
Reaches altitude 10° 16:58:03 10° 269° (W) 6,185 12.8 -19.8°
Maximum altitude 17:18:21 79° 356° (N) 2,933 9.8 -24.1°
Enters shadow 17:26:38 37° 78° (ENE) 3,420 9.7 -25.9°
